C/2013 E2 ( Iwamoto )

Japanese version
Home page
Updated on May 7, 2015

---------------------------------------------------------------------

* Profile

Discovery Date March 10, 2013
Magnitude 14 mag
Discoverer Masayuki Iwamoto (Awa, Tokushima-ken, Japan)

* Pictures

* Orbital Elements

Epoch 2013 Mar. 9.0 TT = JDT 2456360.5
T 2013 Mar.  9.03708 TT                                 MPC
q   1.4133424            (2000.0)            P               Q
z  +0.0042321      Peri.   95.82566     +0.14122660     +0.98984709
 +/-0.0000007      Node   182.47171     -0.98965179     +0.14074574
e   0.9940186      Incl.   21.85715     -0.02538457     +0.01983359
From 1099 observations 2012 Mar. 15-2014 Feb. 2, mean residual 0".5.

* Finding Charts

* Magnitudes Graph

        m1 =  9.0 + 5 log d + 14.0 log r  [ ,0]  (             - 2013 Mar.  9)
        m1 = 10.0 + 5 log d +  8.0 log r  [0, ]  (2013 Mar.  9 -             )

---------------------------------------------------------------------

The orbital elements are published on M.P.E.C. 2014-J58.
The charts are made with StellaNavigator Ver.8 (AstroArts).
The magnitudes graphs are made with Comet for Windows.

---------------------------------------------------------------------

Copyright(C) Seiichi Yoshida (comet@aerith.net). All rights reserved.